Regional Weather Roundup
Issued by NWS Charleston, WV

Home | Current Version | Previous Version | Text Only | Print | Product List | Glossary Off
Versions: 1 2 3 4 5 6 7 8 9 10 11 12 13 14 15 16 17 18 19 20 21 22 23 24 25 26 27 28 29 30 31 32 33 34 35 36 37 38 39 40 41 42 43 44 45 46 47 48 49 50

166
ASUS41 KRLX 082010
RWRRLX
West Virginia Regional Weather Roundup
National Weather Service Charleston WV
300 PM EST MON FEB 08 2016

Note: "fair" indicates few or no clouds below 12,000 feet with no
significant weather and/or obstructions to visibility.

WVZ003-082100-
Northern Panhandle of West Virginia

CITY           SKY/WX    TMP DP  RH WIND       PRES   REMARKS
WHEELING       LGT RAIN  36  32  85 S10       29.56S
$$

WVZ009-082100-
Northwest West Virginia

CITY           SKY/WX    TMP DP  RH WIND       PRES   REMARKS
PARKERSBURG    LGT RAIN  37  34  89 W8        29.63R
$$

WVZ006-082100-
Western West Virginia

CITY           SKY/WX    TMP DP  RH WIND       PRES   REMARKS
HUNTINGTON     LGT RAIN  39  29  67 W12G21    29.62R
$$

WVZ015-082100-
West Central West Virginia

CITY           SKY/WX    TMP DP  RH WIND       PRES   REMARKS
CHARLESTON     PTSUNNY   46  27  47 VRB5      29.58F
$$

WVZ022-031-082100-
North Central West Virginia

CITY           SKY/WX    TMP DP  RH WIND       PRES   REMARKS
CLARKSBURG     CLOUDY    38  35  89 S8        29.59F
MORGANTOWN     LGT RAIN  36  31  82 S7        29.60R
$$

WVZ025-035-042-045-082100-
Southern West Virginia

CITY           SKY/WX    TMP DP  RH WIND       PRES   REMARKS
BECKLEY        CLOUDY    39  25  57 SW8       29.56F
LOGAN            N/A     46  23  39 VRB6      29.56F
BLUEFIELD      CLOUDY    36  26  67 SW10      29.56F
LEWISBURG      LGT SNOW  36  34  94 SW7       29.60S
$$

WVZ047-082100-
Northern Mountains of West Virginia

CITY           SKY/WX    TMP DP  RH WIND       PRES   REMARKS
ELKINS         CLOUDY    36  31  82 VRB3      29.58F
$$

WVZ052-082100-
Eastern Panhandle of West Virginia

CITY           SKY/WX    TMP DP  RH WIND       PRES   REMARKS
MARTINSBURG    PTSUNNY   43  23  45 SE5       29.65F
PETERSBURG     CLOUDY    47  26  42 CALM      29.58F
$$




USA.gov is the U.S. government's official web portal to all federal, state and local government web resources and services.